KD0SBN Weather Reports


time (UTC)temp
C
wind
direction
speed
KPH
gust
KPH
rain 1hr
cm
rain 24hr
cm
rain mn
cm
humidity
%
barometer
mb
20260510224031 20 70 17.7 22.5 0.00 0.00 0.00 45 1022.9
20260510223529 20 87 12.9 16.1 0.00 0.00 0.00 44 1022.7
20260510223026 20 81 9.7 17.7 0.00 0.00 0.00 46 1022.7
20260510222524 20 95 4.8 17.7 0.00 0.00 0.00 45 1022.9
20260510222020 19 71 6.4 12.9 0.00 0.00 0.00 46 1022.8
20260510221515 20 119 12.9 27.4 0.00 0.00 0.00 45 1023.2
20260510221012 19 83 4.8 11.3 0.00 0.00 0.00 45 1022.9
20260510220508 19 92 14.5 16.1 0.00 0.00 0.00 46 1023.0
20260510220004 20 76 12.9 17.7 0.00 0.00 0.00 46 1023.3
20260510215502 19 79 8.0 12.9 0.00 0.00 0.00 48 1023.0
20260510214959 20 95 9.7 22.5 0.00 0.00 0.00 46 1023.2
20260510214456 20 48 1.6 14.5 0.00 0.00 0.00 46 1023.3
20260510213952 19 134 1.6 9.7 0.00 0.00 0.00 45 1023.3
20260510213450 19 81 12.9 17.7 0.00 0.00 0.00 47 1023.5
20260510212946 20 121 11.3 20.9 0.00 0.00 0.00 47 1023.5
20260510212443 19 61 11.3 17.7 0.00 0.00 0.00 47 1023.5
20260510211939 20 125 0.0 9.7 0.00 0.00 0.00 46 1023.6
20260510211437 18 80 12.9 16.1 0.00 0.00 0.00 47 1023.9
20260510210937 18 70 14.5 20.9 0.00 0.00 0.00 50 1023.9
20260510210433 19 153 8.0 12.9 0.00 0.00 0.00 48 1023.6
20260510205932 18 84 3.2 6.4 0.00 0.00 0.00 48 1023.9
20260510205427 19 67 11.3 16.1 0.00 0.00 0.00 48 1023.7
20260510204923 19 42 4.8 11.3 0.00 0.00 0.00 47 1023.9
20260510204420 19 125 6.4 14.5 0.00 0.00 0.00 47 1024.0
20260510203916 19 75 12.9 16.1 0.00 0.00 0.00 50 1024.1
20260510203414 19 57 14.5 24.1 0.00 0.00 0.00 50 1024.2
20260510202914 20 62 9.7 17.7 0.00 0.00 0.00 48 1024.2
20260510202410 18 78 12.9 16.1 0.00 0.00 0.00 51 1024.1
20260510201907 20 119 1.6 6.4 0.00 0.00 0.00 47 1024.2
20260510201404 19 73 9.7 16.1 0.00 0.00 0.00 49 1024.3
20260510200900 19 81 9.7 12.9 0.00 0.00 0.00 50 1024.1
20260510200359 20 86 14.5 16.1 0.00 0.00 0.00 50 1024.1
20260510195854 18 32 0.0 4.8 0.00 0.00 0.00 48 1024.4
20260510195351 18 283 1.6 14.5 0.00 0.00 0.00 50 1024.4
20260510194846 18 129 4.8 12.9 0.00 0.00 0.00 50 1024.4
20260510194343 18 110 6.4 14.5 0.00 0.00 0.00 53 1024.3
20260510193838 18 142 8.0 11.3 0.00 0.00 0.00 51 1024.3
20260510193334 18 73 16.1 20.9 0.00 0.00 0.00 52 1024.4
20260510192829 18 99 12.9 16.1 0.00 0.00 0.00 55 1024.4
20260510192325 17 107 9.7 16.1 0.00 0.00 0.00 54 1024.6
20260510191821 17 80 12.9 16.1 0.00 0.00 0.00 56 1024.7
20260510191317 17 50 3.2 9.7 0.00 0.00 0.00 56 1024.4
20260510190816 17 95 9.7 12.9 0.00 0.00 0.00 56 1024.7
20260510190313 17 73 9.7 17.7 0.00 0.00 0.00 56 1024.8
20260510185809 17 36 4.8 9.7 0.00 0.00 0.00 52 1024.7
20260510185307 18 141 6.4 11.3 0.00 0.00 0.00 55 1024.4
20260510184804 18 125 6.4 9.7 0.00 0.00 0.00 51 1024.8
20260510184301 17 87 6.4 11.3 0.00 0.00 0.00 58 1025.0
20260510183801 17 98 3.2 4.8 0.00 0.00 0.00 57 1024.8
20260510183256 16 130 6.4 6.4 0.00 0.00 0.00 56 1024.8
20260510182752 17 94 6.4 14.5 0.00 0.00 0.00 56 1024.9
20260510182248 17 108 8.0 11.3 0.00 0.00 0.00 56 1025.3
20260510181745 17 129 4.8 9.7 0.00 0.00 0.00 54 1025.1
20260510181242 16 73 1.6 11.3 0.00 0.00 0.00 61 1025.0
20260510180738 16 13 1.6 6.4 0.00 0.00 0.00 61 1025.1
20260510180236 16 101 6.4 16.1 0.00 0.00 0.00 64 1025.0
20260510175732 16 126 4.8 11.3 0.00 0.00 0.00 62 1025.3
20260510175228 15 125 1.6 6.4 0.00 0.00 0.00 64 1025.3
20260510174725 16 65 8.0 12.9 0.00 0.00 0.00 65 1025.3
20260510174223 16 137 11.3 14.5 0.00 0.00 0.00 65 1025.4
20260510173718 16 83 14.5 16.1 0.00 0.00 0.00 67 1025.3
20260510173214 15 43 6.4 12.9 0.00 0.00 0.00 67 1025.4
20260510172710 15 131 9.7 14.5 0.00 0.00 0.00 66 1025.5
20260510172206 14 83 11.3 16.1 0.00 0.00 0.00 70 1025.5
20260510171703 15 69 9.7 12.9 0.00 0.00 0.00 71 1025.7
20260510171200 15 65 11.3 16.1 0.00 0.00 0.00 70 1025.4
20260510170657 15 49 1.6 12.9 0.00 0.00 0.00 69 1025.5
20260510170153 15 73 4.8 12.9 0.00 0.00 0.00 70 1025.5
20260510165650 15 71 11.3 17.7 0.00 0.00 0.00 71 1025.4
20260510165145 14 78 9.7 12.9 0.00 0.00 0.00 72 1025.6
20260510164643 14 74 9.7 12.9 0.00 0.00 0.00 74 1025.4
20260510164140 13 88 4.8 6.4 0.00 0.00 0.00 72 1025.6
20260510163635 13 108 8.0 11.3 0.00 0.00 0.00 74 1025.5
20260510163132 13 76 4.8 9.7 0.00 0.00 0.00 74 1025.5
20260510162631 13 127 1.6 9.7 0.00 0.00 0.00 71 1025.7
20260510162128 13 136 3.2 4.8 0.00 0.00 0.00 70 1025.4
20260510161624 15 145 1.6 6.4 0.00 0.00 0.00 69 1025.5
20260510161121 15 16 0.0 3.2 0.00 0.00 0.00 71 1025.7
20260510160618 15 126 1.6 6.4 0.00 0.00 0.00 69 1025.3
20260510160118 14 130 3.2 9.7 0.00 0.00 0.00 70 1025.5
20260510155615 14 89 4.8 9.7 0.00 0.00 0.00 71 1025.5
20260510155111 14 135 6.4 6.4 0.00 0.00 0.00 70 1025.5
20260510154606 14 77 3.2 6.4 0.00 0.00 0.00 72 1025.6
20260510154102 13 63 3.2 9.7 0.00 0.00 0.00 74 1025.7
20260510153557 13 86 4.8 4.8 0.00 0.00 0.00 76 1025.6
20260510153054 12 84 9.7 11.3 0.00 0.00 0.00 78 1025.6
20260510152551 13 72 6.4 9.7 0.00 0.00 0.00 81 1025.6
20260510152047 12 101 3.2 6.4 0.00 0.00 0.00 81 1025.5
20260510151544 12 78 3.2 6.4 0.00 0.00 0.00 79 1025.5
20260510151042 12 70 8.0 9.7 0.00 0.00 0.00 80 1025.5
20260510150536 12 81 4.8 9.7 0.00 0.00 0.00 81 1025.4
20260510150033 12 74 1.6 1.6 0.00 0.00 0.00 79 1025.3
20260510145529 12 37 0.0 1.6 0.00 0.00 0.00 81 1025.5
20260510145026 12 57 1.6 3.2 0.00 0.00 0.00 82 1025.4
20260510144523 12 56 0.0 3.2 0.00 0.00 0.00 81 1025.5
20260510144019 12 49 3.2 3.2 0.00 0.00 0.00 81 1025.5
20260510143514 12 44 0.0 4.8 0.00 0.00 0.00 82 1025.3
20260510143011 12 343 3.2 3.2 0.00 0.00 0.00 83 1025.5
20260510142508 12 14 3.2 3.2 0.00 0.00 0.00 83 1025.5
20260510142004 12 64 1.6 3.2 0.00 0.00 0.00 83 1025.4
20260510141501 12 58 1.6 4.8 0.00 0.00 0.00 83 1025.4
20260510140958 12 23 1.6 4.8 0.00 0.00 0.00 83 1025.4
20260510140454 12 9 1.6 3.2 0.00 0.00 0.00 82 1025.3
20260510135954 12 80 0.0 0.0 0.00 0.00 0.00 82 1025.3
20260510135449 12 66 0.0 1.6 0.00 0.00 0.00 82 1025.0
20260510134947 12 78 3.2 4.8 0.00 0.00 0.00 81 1025.0
20260510134443 12 22 0.0 0.0 0.00 0.00 0.00 80 1025.0
20260510133940 12 107 0.0 0.0 0.00 0.00 0.00 81 1025.0
20260510133436 12 121 0.0 0.0 0.00 0.00 0.00 82 1024.8
20260510132932 12 116 0.0 0.0 0.00 0.00 0.00 84 1024.8
20260510132430 11 200 0.0 0.0 0.00 0.00 0.00 87 1024.6
20260510131926 11 153 0.0 0.0 0.00 0.00 0.00 88 1024.7
20260510131424 11 149 0.0 0.0 0.00 0.00 0.00 88 1024.7
20260510130920 11 169 0.0 0.0 0.00 0.00 0.00 88 1024.6
20260510130417 11 186 0.0 0.0 0.00 0.00 0.00 88 1024.7
20260510125915 11 243 0.0 0.0 0.00 0.36 0.36 88 1024.6
20260510125410 11 239 0.0 0.0 0.00 0.36 0.36 88 1024.3
20260510124908 11 237 0.0 1.6 0.00 0.36 0.36 88 1024.4
20260510124404 11 224 0.0 1.6 0.00 0.36 0.36 88 1024.6
20260510123900 11 216 0.0 3.2 0.00 0.36 0.36 89 1024.3
20260510123356 10 244 1.6 1.6 0.00 0.36 0.36 89 1024.4
20260510122852 10 248 0.0 0.0 0.00 0.36 0.36 90 1024.4
20260510122348 10 248 0.0 0.0 0.00 0.36 0.36 90 1024.2
20260510121844 10 237 1.6 3.2 0.00 0.36 0.36 90 1024.3
20260510121342 10 240 3.2 3.2 0.00 0.36 0.36 91 1024.2
20260510120839 10 345 0.0 0.0 0.00 0.36 0.36 92 1024.1
20260510120336 10 2 0.0 0.0 0.00 0.36 0.36 92 1024.1
20260510115832 10 357 0.0 0.0 0.00 0.36 0.36 92 1023.9
20260510115329 10 2 0.0 0.0 0.00 0.36 0.36 92 1024.0
20260510114824 10 354 0.0 0.0 0.00 0.36 0.36 92 1024.0
20260510114322 10 349 0.0 0.0 0.00 0.36 0.36 92 1024.0
20260510113817 10 338 0.0 0.0 0.00 0.36 0.36 92 1023.9
20260510113314 10 341 1.6 1.6 0.00 0.36 0.36 92 1024.1
20260510112811 10 333 0.0 3.2 0.00 0.36 0.36 91 1024.2
20260510112307 10 345 0.0 0.0 0.00 0.36 0.36 91 1023.9
20260510111803 10 8 0.0 0.0 0.00 0.36 0.36 91 1024.2
20260510111300 10 21 0.0 0.0 0.00 0.36 0.36 91 1023.7
20260510110800 10 24 0.0 0.0 0.00 0.36 0.36 91 1023.9
20260510110258 10 45 0.0 0.0 0.00 0.36 0.36 91 1023.9
20260510105758 10 37 0.0 0.0 0.00 0.36 0.36 91 1024.0
20260510105253 10 2 0.0 0.0 0.00 0.36 0.36 91 1023.9
20260510104749 10 266 0.0 0.0 0.00 0.36 0.36 92 1023.7
20260510104247 10 8 0.0 0.0 0.00 0.36 0.36 92 1024.0
20260510103743 10 9 0.0 0.0 0.00 0.36 0.36 92 1024.0
20260510103240 10 341 1.6 1.6 0.00 0.36 0.36 92 1024.1
20260510102740 10 328 1.6 3.2 0.00 0.36 0.36 92 1024.2
20260510102236 10 334 1.6 3.2 0.00 0.36 0.36 92 1024.1
20260510101734 10 326 0.0 1.6 0.00 0.36 0.36 92 1023.9
20260510101232 10 334 0.0 1.6 0.00 0.36 0.36 92 1024.1
20260510100727 10 318 0.0 0.0 0.00 0.36 0.36 92 1024.0
20260510100227 10 326 0.0 0.0 0.00 0.36 0.36 92 1023.9
20260510095727 10 341 0.0 1.6 0.00 0.36 0.36 92 1023.7
20260510095222 10 338 1.6 3.2 0.00 0.36 0.36 91 1023.6
20260510094721 10 1 3.2 3.2 0.00 0.36 0.36 91 1024.0
20260510094217 10 327 1.6 1.6 0.00 0.36 0.36 91 1024.1
20260510093713 10 344 0.0 6.4 0.00 0.36 0.36 91 1023.9
20260510093210 10 339 3.2 6.4 0.00 0.36 0.36 90 1024.1
20260510092707 10 343 6.4 9.7 0.00 0.36 0.36 91 1023.6
20260510092202 10 345 6.4 9.7 0.00 0.36 0.36 91 1023.9
20260510091658 10 344 4.8 6.4 0.00 0.36 0.36 91 1023.9
20260510091154 10 337 3.2 9.7 0.00 0.36 0.36 91 1023.7
20260510090651 10 350 3.2 11.3 0.00 0.36 0.36 90 1023.6
20260510090148 10 351 9.7 12.9 0.00 0.36 0.36 90 1023.6
20260510085643 10 337 6.4 16.1 0.00 0.36 0.36 89 1023.5
20260510085138 10 352 11.3 16.1 0.00 0.36 0.36 89 1023.4
20260510084635 10 354 8.0 14.5 0.00 0.36 0.36 90 1023.4
20260510084132 10 349 6.4 11.3 0.00 0.36 0.36 91 1023.6
20260510083628 10 14 4.8 9.7 0.00 0.36 0.36 91 1023.6
20260510083125 10 359 6.4 9.7 0.00 0.36 0.36 91 1023.7
20260510082621 10 338 6.4 6.4 0.00 0.36 0.36 91 1023.7
20260510082118 10 346 4.8 6.4 0.00 0.36 0.36 91 1023.2
20260510081617 10 357 4.8 14.5 0.00 0.36 0.36 91 1023.5
20260510081114 10 349 9.7 12.9 0.00 0.36 0.36 91 1023.2
20260510080613 10 348 6.4 12.9 0.00 0.36 0.36 91 1022.9
20260510080110 10 3 9.7 12.9 0.00 0.36 0.36 91 1022.9
20260510075607 10 357 9.7 17.7 0.00 0.36 0.36 90 1023.0
20260510075104 10 9 9.7 12.9 0.00 0.36 0.36 90 1022.8
20260510074601 10 12 9.7 14.5 0.00 0.36 0.36 90 1022.7
20260510074057 10 22 6.4 17.7 0.00 0.36 0.36 90 1022.7
20260510073553 10 343 6.4 12.9 0.00 0.36 0.36 90 1022.9
20260510073050 10 6 14.5 14.5 0.00 0.36 0.36 90 1023.0
20260510072547 10 25 11.3 12.9 0.00 0.36 0.36 90 1022.7
20260510072042 10 9 11.3 20.9 0.00 0.36 0.36 91 1022.8
20260510071539 10 26 14.5 20.9 0.00 0.36 0.36 91 1022.6
20260510071037 10 9 17.7 22.5 0.18 0.36 0.36 91 1022.7
20260510070534 10 65 16.1 22.5 0.18 0.36 0.36 92 1022.6
20260510070031 10 350 12.9 20.9 0.00 0.33 0.33 92 1022.3
20260510065527 10 4 16.1 24.1 0.23 0.33 0.33 91 1022.2
20260510065023 10 18 17.7 30.6 0.61 0.33 0.33 91 1022.3
20260510064520 10 7 22.5 33.8 1.27 0.28 0.28 91 1022.2
20260510064016 10 9 19.3 29.0 1.32 0.23 0.23 90 1022.1
20260510063513 10 0 29.0 35.4 0.18 0.03 0.03 86 1022.1
20260510063011 12 8 20.9 38.6 0.00 0.00 0.00 74 1021.9
20260510062506 13 6 29.0 35.4 0.00 0.00 0.00 66 1022.0
20260510062001 13 26 22.5 35.4 0.00 0.00 0.00 66 1021.9
20260510061458 13 19 17.7 27.4 0.00 0.00 0.00 66 1021.8
20260510060955 13 358 27.4 30.6 0.00 0.00 0.00 65 1022.0
20260510060452 13 19 25.7 38.6 0.00 0.00 0.00 65 1021.9
20260510055948 13 359 19.3 35.4 0.00 0.00 0.00 64 1021.3
20260510055444 13 13 22.5 33.8 0.00 0.00 0.00 64 1021.1
20260510054942 13 10 25.7 38.6 0.00 0.00 0.00 63 1020.6
20260510054437 13 357 29.0 48.3 0.00 0.00 0.00 62 1020.1
20260510053932 13 9 30.6 51.5 0.00 0.00 0.00 62 1019.7
20260510053428 13 359 27.4 51.5 0.00 0.00 0.00 61 1019.6
20260510052924 13 8 25.7 46.7 0.00 0.00 0.00 60 1019.4
20260510052420 13 359 38.6 48.3 0.00 0.00 0.00 60 1019.6
20260510051917 14 281 19.3 37.0 0.00 0.00 0.00 60 1019.4
20260510051413 14 307 25.7 37.0 0.00 0.00 0.00 60 1019.3
20260510050909 14 335 33.8 41.8 0.00 0.00 0.00 59 1019.3
20260510050406 14 336 27.4 48.3 0.00 0.00 0.00 59 1019.2
20260510045903 14 341 22.5 41.8 0.00 0.00 0.00 59 1019.3
20260510045401 14 344 22.5 40.2 0.00 0.00 0.00 59 1019.3
20260510044857 14 350 17.7 33.8 0.00 0.00 0.00 58 1019.3
20260510044354 14 264 20.9 35.4 0.00 0.00 0.00 57 1019.1
20260510043851 15 301 22.5 40.2 0.00 0.00 0.00 58 1019.0
20260510043346 15 336 22.5 37.0 0.00 0.00 0.00 57 1018.9
20260510042845 15 340 22.5 30.6 0.00 0.00 0.00 57 1018.7
20260510042340 15 336 16.1 29.0 0.00 0.00 0.00 57 1018.4
20260510041837 15 329 17.7 40.2 0.00 0.00 0.00 57 1018.0
20260510041334 15 333 22.5 33.8 0.00 0.00 0.00 56 1018.2
20260510040832 15 358 17.7 25.7 0.00 0.00 0.00 56 1018.0
20260510040328 15 342 20.9 33.8 0.00 0.00 0.00 55 1017.8
20260510035823 15 310 17.7 25.7 0.00 0.00 0.00 55 1017.5
20260510035320 16 356 19.3 27.4 0.00 0.00 0.00 54 1017.6
20260510034815 16 326 16.1 27.4 0.00 0.00 0.00 53 1017.7
20260510034313 16 345 17.7 27.4 0.00 0.00 0.00 52 1017.2
20260510033809 17 310 14.5 24.1 0.00 0.00 0.00 50 1017.1
20260510033307 17 348 14.5 24.1 0.00 0.00 0.00 45 1016.9
20260510032803 17 336 9.7 14.5 0.00 0.00 0.00 43 1016.2
20260510032300 17 341 3.2 6.4 0.00 0.00 0.00 42 1015.6
20260510031755 17 331 0.0 1.6 0.00 0.00 0.00 43 1015.2
20260510031252 17 294 0.0 0.0 0.00 0.00 0.00 44 1015.1
20260510030751 17 284 1.6 1.6 0.00 0.00 0.00 41 1015.0
20260510030248 17 274 0.0 1.6 0.00 0.00 0.00 42 1014.5
20260510025745 17 318 0.0 1.6 0.00 0.00 0.00 44 1014.5
20260510025243 17 321 0.0 0.0 0.00 0.00 0.00 43 1014.2
20260510024739 17 321 0.0 0.0 0.00 0.00 0.00 42 1014.2
20260510024236 18 322 0.0 0.0 0.00 0.00 0.00 41 1014.2
20260510023732 18 358 1.6 3.2 0.00 0.00 0.00 38 1014.0
20260510023229 18 9 3.2 4.8 0.00 0.00 0.00 38 1013.7
20260510022726 18 46 0.0 3.2 0.00 0.00 0.00 38 1013.6
20260510022225 19 58 0.0 0.0 0.00 0.00 0.00 38 1013.6
20260510021720 19 63 1.6 3.2 0.00 0.00 0.00 36 1013.5
20260510021218 20 69 1.6 3.2 0.00 0.00 0.00 36 1013.5
20260510020713 20 74 1.6 3.2 0.00 0.00 0.00 35 1013.4
20260510020208 20 22 1.6 4.8 0.00 0.00 0.00 34 1013.1
20260510015704 21 11 3.2 4.8 0.00 0.00 0.00 31 1013.1
20260510015201 21 36 0.0 3.2 0.00 0.00 0.00 31 1012.8
20260510014701 21 314 0.0 0.0 0.00 0.00 0.00 32 1012.9
20260510014159 22 99 0.0 3.2 0.00 0.00 0.00 28 1012.7
20260510013654 22 135 0.0 3.2 0.00 0.00 0.00 27 1012.6
20260510013150 22 193 4.8 12.9 0.00 0.00 0.00 27 1012.3
20260510012649 22 130 11.3 16.1 0.00 0.00 0.00 27 1012.0
20260510012145 22 84 12.9 20.9 0.00 0.00 0.00 27 1011.9
20260510011640 22 110 14.5 17.7 0.00 0.00 0.00 28 1012.3
20260510011136 22 151 9.7 16.1 0.00 0.00 0.00 32 1012.9
20260510010632 22 97 4.8 12.9 0.00 0.00 0.00 31 1013.1
20260510010130 22 261 6.4 9.7 0.00 0.00 0.00 28 1013.4
20260510005625 22 42 0.0 12.9 0.00 0.00 0.00 31 1013.6
20260510005123 22 34 4.8 4.8 0.00 0.00 0.00 31 1013.5
20260510004621 22 16 9.7 14.5 0.00 0.00 0.00 31 1013.4
20260510004119 22 346 8.0 9.7 0.00 0.00 0.00 33 1013.3
20260510003615 22 15 8.0 12.9 0.00 0.00 0.00 33 1013.1
20260510003111 22 1 6.4 16.1 0.00 0.00 0.00 32 1013.0
20260510002606 22 358 11.3 20.9 0.00 0.00 0.00 32 1013.1
20260510002103 22 13 9.7 14.5 0.00 0.00 0.00 32 1012.7
20260510001600 22 70 12.9 24.1 0.00 0.00 0.00 32 1012.6
20260510001059 22 23 16.1 22.5 0.00 0.00 0.00 32 1012.6
20260510000559 22 59 14.5 27.4 0.00 0.00 0.00 32 1012.6
20260510000056 22 356 16.1 22.5 0.00 0.00 0.00 31 1013.0
20260509235553 23 342 4.8 9.7 0.00 0.00 0.00 30 1012.7
20260509235049 23 332 9.7 14.5 0.00 0.00 0.00 28 1012.3
20260509234545 23 274 20.9 25.7 0.00 0.00 0.00 26 1012.0
20260509234044 23 356 12.9 20.9 0.00 0.00 0.00 26 1012.3
20260509233541 23 5 20.9 30.6 0.00 0.00 0.00 26 1012.2
20260509233038 23 1 19.3 25.7 0.00 0.00 0.00 25 1011.8
20260509232535 24 7 17.7 27.4 0.00 0.00 0.00 25 1011.8
20260509232031 24 28 20.9 35.4 0.00 0.00 0.00 25 1011.6
20260509231528 25 15 27.4 37.0 0.00 0.00 0.00 25 1011.3
20260509231026 25 0 8.0 12.9 0.00 0.00 0.00 21 1011.1
20260509230522 25 5 6.4 12.9 0.00 0.00 0.00 20 1010.8
20260509230019 25 340 6.4 20.9 0.00 0.00 0.00 21 1010.2
20260509225514 25 85 4.8 20.9 0.00 0.00 0.00 21 1010.4
20260509225010 25 7 6.4 24.1 0.00 0.00 0.00 19 1010.5
20260509224506 25 329 8.0 24.1 0.00 0.00 0.00 22 1010.9